Weather History for Warroad, MN

Change the Weather History Date:

Monday, January 21, 2013

  Actual Average Record
Temperature  
Mean Temperature -18 °F -  
Max Temperature -11 °F 17 °F 40 °F (1968)
Min Temperature -25 °F -4 °F -39 °F (1954)
Degree Days  
Heating Degree Days 83    
Moisture  
Dew Point -27 °F    
Average Humidity 69    
Maximum Humidity 76    
Minimum Humidity 59    
Precipitation  
Precipitation 0.00 in - - ()
Sea Level Pressure  
Sea Level Pressure 30.19 in    
Wind  
Wind Speed 8 mph (WSW)    
Max Wind Speed 13 mph    
Max Gust Speed 20 mph    
Visibility 9 miles    
Events      
Averages and records for this station are not official NWS values.
T = Trace of Precipitation, MM = Missing Value Source: NWS Daily Summary

Daily Weather History Graph

Daily Weather History Graph

Search for Another Location

Airport:

Trip Planner

Search our weather history database for the weather conditions in past years. The results will help you decide how hot, cold, wet, or windy it might be!

Date:

Astronomy

Jan. 21, 2013 Rise Set
Actual Time 8:04 AM CST 5:01 PM CST
Civil Twilight 7:29 AM CST 5:36 PM CST
Nautical Twilight 6:50 AM CST 6:15 PM CST
Astronomical Twilight 6:12 AM CST 6:53 PM CST
Moon 12:40 PM CST (1/21) 3:34 AM CST (1/21)
Length of Visible Light 10h 07m
Length of Day
8h 57m
Waxing Gibbous, 75% of the Moon is Illuminated
Jan 21
Waxing Gibbous
Jan 26
Full
Feb 3
Last Quarter
Feb 10
New
Feb 17
First Quarter

Hourly Weather History & Observations

Time (CST) Temp. Windchill Dew Point Humidity Pressure Visibility Wind Dir Wind Speed Gust Speed Precip Events Conditions
12:14 AM -20.2 °F -37.3 °F -27.4 °F 69% 30.22 in 10.0 mi WSW 6.9 mph - N/A   Clear
12:34 AM -20.2 °F -33.5 °F -27.4 °F 69% 30.22 in 10.0 mi WSW 4.6 mph - N/A   Clear
12:54 AM -22.0 °F -37.7 °F -29.2 °F 69% 30.21 in 10.0 mi WSW 5.8 mph - N/A   Clear
1:14 AM -22.0 °F -39.4 °F -29.2 °F 69% 30.20 in 10.0 mi WSW 6.9 mph - N/A   Clear
1:34 AM -23.8 °F -39.8 °F -29.2 °F 76% 30.21 in 10.0 mi WSW 5.8 mph - N/A   Clear
1:54 AM -23.8 °F -39.8 °F -29.2 °F 76% 30.21 in 10.0 mi WSW 5.8 mph - N/A   Clear
2:14 AM -23.8 °F -43.2 °F -29.2 °F 76% 30.21 in 10.0 mi WSW 8.1 mph - N/A   Clear
2:34 AM -23.8 °F -43.2 °F -29.2 °F 76% 30.21 in 10.0 mi WSW 8.1 mph - N/A   Scattered Clouds
2:54 AM -23.8 °F -43.2 °F -29.2 °F 76% 30.21 in 10.0 mi WSW 8.1 mph - N/A   Mostly Cloudy
3:14 AM -23.8 °F -43.2 °F -29.2 °F 76% 30.21 in 10.0 mi West 8.1 mph - N/A   Scattered Clouds
3:34 AM -22.0 °F -43.6 °F -29.2 °F 69% 30.20 in 10.0 mi West 10.4 mph - N/A   Mostly Cloudy
3:54 AM -23.8 °F -44.5 °F -29.2 °F 76% 30.20 in 10.0 mi West 9.2 mph - N/A   Mostly Cloudy
4:14 AM -23.8 °F -39.8 °F -29.2 °F 76% 30.20 in 10.0 mi West 5.8 mph - N/A   Scattered Clouds
4:54 AM -23.8 °F -39.8 °F -31.0 °F 69% 30.19 in 10.0 mi WSW 5.8 mph - N/A   Scattered Clouds
5:14 AM -25.6 °F -43.8 °F -32.8 °F 69% 30.19 in 10.0 mi WSW 6.9 mph - N/A   Clear
5:34 AM -25.6 °F -45.4 °F -32.8 °F 69% 30.19 in 10.0 mi West 8.1 mph - N/A   Scattered Clouds
5:54 AM -25.6 °F -43.8 °F -32.8 °F 69% 30.19 in 10.0 mi West 6.9 mph - N/A   Scattered Clouds
6:14 AM -25.6 °F -45.4 °F -32.8 °F 69% 30.19 in 10.0 mi West 8.1 mph - N/A   Mostly Cloudy
6:34 AM -25.6 °F -41.9 °F -32.8 °F 69% 30.19 in 10.0 mi West 5.8 mph - N/A   Overcast
6:54 AM -25.6 °F -43.8 °F -32.8 °F 69% 30.18 in 10.0 mi West 6.9 mph - N/A   Overcast
7:14 AM -23.8 °F -43.2 °F -29.2 °F 76% 30.18 in 10.0 mi West 8.1 mph - N/A   Overcast
7:34 AM -23.8 °F -39.8 °F -29.2 °F 76% 30.18 in 10.0 mi West 5.8 mph - N/A   Overcast
7:54 AM -23.8 °F -43.2 °F -29.2 °F 76% 30.18 in 7.0 mi West 8.1 mph - N/A   Overcast
8:14 AM -23.8 °F -46.9 °F -31.0 °F 69% 30.18 in 10.0 mi West 11.5 mph - N/A   Scattered Clouds
8:34 AM -23.8 °F -43.2 °F -29.2 °F 76% 30.19 in 10.0 mi West 8.1 mph - N/A   Clear
8:54 AM -23.8 °F -43.2 °F -29.2 °F 76% 30.19 in 10.0 mi West 8.1 mph - N/A   Clear
9:14 AM -22.0 °F -41.0 °F -29.2 °F 69% 30.18 in 7.0 mi West 8.1 mph - N/A   Clear
9:34 AM -20.2 °F -40.1 °F -29.2 °F 63% 30.19 in 7.0 mi West 9.2 mph - N/A   Clear
9:54 AM -20.2 °F -38.8 °F -27.4 °F 69% 30.19 in 10.0 mi West 8.1 mph - N/A   Mostly Cloudy
10:14 AM -20.2 °F -40.1 °F -27.4 °F 69% 30.19 in 4.0 mi WSW 9.2 mph - N/A   Haze
10:34 AM -18.4 °F -36.6 °F -27.4 °F 63% 30.20 in 7.0 mi West 8.1 mph - N/A   Scattered Clouds
10:54 AM -18.4 °F -35.1 °F -25.6 °F 70% 30.20 in 4.0 mi WSW 6.9 mph - N/A   Haze
11:14 AM -18.4 °F -35.1 °F -25.6 °F 70% 30.19 in 10.0 mi WSW 6.9 mph - N/A   Scattered Clouds
11:34 AM -16.6 °F -32.9 °F -23.8 °F 70% 30.19 in 7.0 mi WSW 6.9 mph - N/A   Clear
11:54 AM -16.6 °F -34.4 °F -23.8 °F 70% 30.18 in 10.0 mi WSW 8.1 mph - N/A   Clear
12:14 PM -14.8 °F -34.6 °F -23.8 °F 64% 30.18 in 10.0 mi WSW 10.4 mph - N/A   Clear
12:34 PM -14.8 °F -34.6 °F -23.8 °F 64% 30.17 in 7.0 mi SW 10.4 mph - N/A   Clear
12:54 PM -14.8 °F -32.2 °F -22.0 °F 70% 30.17 in 3.0 mi WSW 8.1 mph - N/A   Haze
1:14 PM -13.0 °F -34.3 °F -22.0 °F 64% 30.16 in 2.5 mi WSW 12.7 mph - N/A   Haze
1:34 PM -13.0 °F -34.3 °F -20.2 °F 70% 30.16 in 2.5 mi West 12.7 mph 17.3 mph N/A   Haze
1:54 PM -11.2 °F -32.1 °F -20.2 °F 64% 30.15 in 3.0 mi WSW 12.7 mph - N/A   Haze
2:14 PM -11.2 °F -32.1 °F -20.2 °F 64% 30.15 in 5.0 mi West 12.7 mph 19.6 mph N/A   Haze
2:34 PM -11.2 °F -31.1 °F -20.2 °F 64% 30.15 in 5.0 mi West 11.5 mph - N/A   Haze
2:54 PM -11.2 °F -32.1 °F -20.2 °F 64% 30.16 in 5.0 mi WSW 12.7 mph 17.3 mph N/A   Haze
3:14 PM -11.2 °F -31.1 °F -20.2 °F 64% 30.16 in 7.0 mi West 11.5 mph - N/A   Scattered Clouds
3:34 PM -11.2 °F -31.1 °F -20.2 °F 64% 30.17 in 10.0 mi WSW 11.5 mph - N/A   Clear
3:54 PM -11.2 °F -32.1 °F -20.2 °F 64% 30.17 in 10.0 mi WSW 12.7 mph 16.1 mph N/A   Clear
4:14 PM -11.2 °F -31.1 °F -20.2 °F 64% 30.17 in 10.0 mi WSW 11.5 mph - N/A   Clear
4:34 PM -11.2 °F -29.0 °F -22.0 °F 59% 30.17 in 10.0 mi WSW 9.2 mph - N/A   Clear
4:54 PM -13.0 °F -31.3 °F -22.0 °F 64% 30.17 in 10.0 mi WNW 9.2 mph - N/A   Clear
5:14 PM -13.0 °F -32.4 °F -22.0 °F 64% 30.18 in 10.0 mi West 10.4 mph - N/A   Clear
5:34 PM -14.8 °F -30.8 °F -23.8 °F 64% 30.18 in 10.0 mi WNW 6.9 mph - N/A   Clear
5:54 PM -14.8 °F -35.6 °F -23.8 °F 64% 30.18 in 10.0 mi West 11.5 mph - N/A   Clear
6:14 PM -14.8 °F -30.8 °F -23.8 °F 64% 30.18 in 10.0 mi West 6.9 mph - N/A   Clear
6:34 PM -16.6 °F -32.9 °F -23.8 °F 70% 30.19 in 10.0 mi West 6.9 mph - N/A   Clear
6:54 PM -16.6 °F -34.4 °F -23.8 °F 70% 30.19 in 10.0 mi West 8.1 mph - N/A   Clear
7:14 PM -16.6 °F -32.9 °F -23.8 °F 70% 30.20 in 10.0 mi West 6.9 mph - N/A   Clear
7:34 PM -16.6 °F -34.4 °F -25.6 °F 64% 30.20 in 10.0 mi West 8.1 mph - N/A   Clear
7:54 PM -18.4 °F -31.4 °F -25.6 °F 70% 30.20 in 10.0 mi WSW 4.6 mph - N/A   Clear
8:14 PM -18.4 °F -33.4 °F -25.6 °F 70% 30.20 in 10.0 mi WSW 5.8 mph - N/A   Clear
8:34 PM -18.4 °F -31.4 °F -25.6 °F 70% 30.20 in 10.0 mi WSW 4.6 mph - N/A   Clear
8:54 PM -18.4 °F -28.9 °F -27.4 °F 63% 30.19 in 10.0 mi WSW 3.5 mph - N/A   Clear
9:14 PM -20.2 °F -37.3 °F -27.4 °F 69% 30.20 in 10.0 mi WSW 6.9 mph - N/A   Clear
9:34 PM -20.2 °F -38.8 °F -27.4 °F 69% 30.20 in 10.0 mi WSW 8.1 mph - N/A   Clear
9:54 PM -20.2 °F -35.5 °F -27.4 °F 69% 30.19 in 10.0 mi WSW 5.8 mph - N/A   Clear
10:14 PM -20.2 °F -35.5 °F -27.4 °F 69% 30.20 in 10.0 mi WSW 5.8 mph - N/A   Clear
10:34 PM -20.2 °F -35.5 °F -27.4 °F 69% 30.20 in 10.0 mi WSW 5.8 mph - N/A   Clear
10:54 PM -20.2 °F -37.3 °F -27.4 °F 69% 30.21 in 10.0 mi WSW 6.9 mph - N/A   Clear
11:14 PM -20.2 °F -37.3 °F -27.4 °F 69% 30.21 in 10.0 mi WSW 6.9 mph - N/A   Clear
11:34 PM -22.0 °F -37.7 °F -29.2 °F 69% 30.21 in 10.0 mi West 5.8 mph - N/A   Clear
11:54 PM -22.0 °F -37.7 °F -29.2 °F 69% 30.21 in 10.0 mi West 5.8 mph - N/A   Clear